Regional Weather Roundup
Issued by NWS

Home | Current Version | Previous Version | Text Only | Print | Product List | Glossary Off
Versions: 1 2 3 4 5 6 7 8 9 10 11 12 13 14 15 16 17 18 19 20 21 22 23 24 25 26 27 28 29 30 31 32 33 34 35 36 37 38 39 40 41 42 43 44 45 46 47 48 49 50

000
ASUS43 KMKX 300400
RWRWI

WISCONSIN REGIONAL WEATHER ROUNDUP
NATIONAL WEATHER SERVICE MILWAUKEE/SULLIVAN WI
1100 PM CDT MON AUG 29 2016

NOTE: "FAIR" INDICATES FEW OR NO CLOUDS BELOW 12,000 FEET WITH NO
SIGNIFICANT WEATHER AND/OR OBSTRUCTIONS TO VISIBILITY.

WIZ001-002-006>008-014>016-023>028-300500-
NORTHWEST WISCONSIN

CITY           SKY/WX    TMP DP  RH WIND       PRES   REMARKS
SUPERIOR ARPT  CLOUDY    69  66  91 W6        30.10F
ASHLAND        CLOUDY    68  64  87 SW8       30.13S
HAYWARD        CLOUDY    68  66  93 S6        30.17R
SIREN          LGT RAIN  70  68  95 SE7       30.14F
CUMBERLAND     TSTM      63  61  94 CALM      30.20R
RICE LAKE      TSTM      65  61  89 N12G25    30.21R
CHETEK         NOT AVBL
LADYSMITH      CLOUDY    73  71  92 CALM      30.17F
EAU CLAIRE     PTCLDY    72  71  97 SW5       30.16R
MENOMONIE      CLOUDY    73  70  92 CALM      30.16S
NEW RICHMOND   RAIN      68  63  82 N8G20     30.20R
OSCEOLA        HVY RAIN  67  67 100 SE7       30.21F
$$

WIZ003>005-009-010-017-018-300500-
NORTH CENTRAL WISCONSIN

CITY           SKY/WX    TMP DP  RH WIND       PRES   REMARKS
MANITOWISH WTR NOT AVBL
ARBOR VITAE    CLOUDY    72  69  90 CALM      30.17S
WOODRUFF       CLOUDY    72  69  90 CALM      30.17S
RHINELANDER    CLOUDY    72  71  97 SW6       30.18F
EAGLE RIVER    CLOUDY    67  67 100 CALM      30.17S FOG
LAND O LAKES   CLOUDY    71  67  85 CALM      30.18R
PHILLIPS       CLOUDY    71  70  98 SW6       30.14F
TOMAHAWK       CLOUDY    69  67  93 CALM      30.17F
MEDFORD        CLOUDY    70  70 100 S7        30.18F
MERRILL        CLOUDY    72  71  99 SW3       30.18F
$$

WIZ029-030-035-036-043>047-300500-
CENTRAL WISCONSIN

CITY           SKY/WX    TMP DP  RH WIND       PRES   REMARKS
WAUSAU         PTCLDY    72  69  90 SW5       30.17S
MOSINEE        PTCLDY    70  70 100 SW5       30.19S
MARSHFIELD     FOG       69  67  93 SW6       30.18F VSB 1
STEVENS POINT  CLEAR     70  68  95 SW5       30.18S
WAUPACA        CLEAR     71  71  99 CALM      30.18S
WAUTOMA        PTCLDY    67  67 100 CALM      30.18S FOG
WISC RAPIDS    CLEAR     69  69 100 SW3       30.19S FOG
CAMP DOUGLAS   FOG       64  64 100 NW2       30.18S VSB 1/2
$$

WIZ011>013-019>022-031-037>040-048>050-300500-
NORTHEAST WISCONSIN

CITY           SKY/WX    TMP DP  RH WIND       PRES   REMARKS
ANTIGO         CLOUDY    70  68  95 SW5       30.18F
SHAWANO        CLOUDY    75  70  84 SW3       30.16S
OCONTO         NOT AVBL
STURGEON BAY   PTCLDY    70  66  87 S9        30.15F
GREEN BAY      PTCLDY    72  71  97 SW6       30.16S
MANITOWOC      NOT AVBL
APPLETON       MOCLDY    72  70  94 VRB5      30.16S
CLINTONVILLE   CLOUDY    70  68  94 SW3       30.16S
OSHKOSH        CLEAR     68  66  93 SW3       30.16F
$$

WIZ032>034-041-042-053>061-300500-
SOUTHWEST WISCONSIN

CITY           SKY/WX    TMP DP  RH WIND       PRES   REMARKS
LA CROSSE      CLOUDY    73  72  96 SE3       30.17R
SPARTA         CLOUDY    66  66 100 CALM      30.19S
VIROQUA        CLOUDY    69  69 100 CALM      30.20S
BOSCOBEL       FOG       72  71  97 CALM      30.17S VSB 1/4
PRAIRIE DU CHI MOCLDY    73  71  94 CALM      30.17S FOG
PLATTEVILLE    PTCLDY    71  71 100 CALM      30.19S
$$

WIZ056-057-062-063-064-067-068-300500-
SOUTH CENTRAL WISCONSIN

CITY           SKY/WX    TMP DP  RH WIND       PRES   REMARKS
REEDSBURG      NOT AVBL
BARABOO/DELLS  PTCLDY    69  67  94 CALM      30.17F FOG
LONE ROCK      CLOUDY    70  68  93 CALM      30.17F FOG
MINERAL POINT  PTCLDY    72  72 100 S3        30.19F
MADISON        MOCLDY    73  68  84 S7        30.17S
MIDDLETON      PTCLDY    72  72 100 CALM      30.18S
WATERTOWN      PTCLDY    69  69 100 CALM      30.18R
MONROE         PTCLDY    70  68  94 S3        30.19S
JANESVILLE     PTCLDY    70  68  94 CALM      30.18  FOG
$$

WIZ051-052-058>065-066-070>072-300500-
SOUTHEAST WISCONSIN

CITY           SKY/WX    TMP DP  RH WIND       PRES   REMARKS
MILWAUKEE      MOCLDY    75  70  84 SW6       30.18S
WAUKESHA       CLEAR     66  64  94 CALM      30.20S
MILWAUKEE/TIMM CLEAR     72  64  78 CALM      30.19S
RACINE         PTCLDY    70  68  93 SW3       30.20S FOG
BURLINGTON     PTCLDY    64  64  98 CALM      30.19S
KENOSHA        MOCLDY    70  68  93 E3        30.19S
FOND DU LAC    CLEAR     67  66  97 CALM      30.18S
SHEBOYGAN      CLEAR     66  63  90 S5        30.18S
WEST BEND      CLEAR     66  64  94 CALM      30.18F
JUNEAU         CLOUDY    69  67  95 SE6       30.19S
$$

LSZ147-162-300500-
LAKE SUPERIOR

STATION/POSITION TIME  TEMP    WIND        PRES    WAVE
                       AIR SEA DIR/SP/G            HT/PER
                 (UTC) (F)     (DEG/KT/KT) (MB)    (FT/S)
W MID LAKE BUOY  0250   70 68  300/  4/  6 1017.9R   0
DEVILS ISLAND    0300   74     180/  8/  9 1018.5F
PORT WING        0305   74     300/ 10     1021.0R
SAXON HARBOR     0320   70     180/  3/ 11 1019.6S
$$

LMZ867-665-643>646-300500-
LAKE MICHIGAN

STATION/POSITION TIME  TEMP    WIND        PRES    WAVE
                       AIR SEA DIR/SP/G            HT/PER
                 (UTC) (F)     (DEG/KT/KT) (MB)    (FT/S)
CHAMBERS ISLAND  0300   74     180/  5/ 10 1020.3S
S GREEN BAY BUOY 0200   75 74  180/ 12/ 14 1020.1F
N MID LAKE BUOY  0250   72 71  210/ 12/ 14 1019.8F   2/ 3
NORTHPORT PIER   0300   72     170/  4/  9 1020.3S
SISTER BAY       0307   73     180/ 12/ 14   N/A
ALGOMA LAKESHORE 0330          210/  9/ 10   N/A
KEWAUNEE LAKESHO 0300   66     150/  2/  4 1020.8S
SHEBOYGAN LAKESH 0300   69        CALM     1021.3R
PORT WASHINGTON  0300   72     260/  2/  3 1022.4
ATWATER BUOY     0300   69     170/  6/  6   N/A
MILWAUKEE LAKESH 0310   72     160/  4/  4   N/A
S MID LAKE BUOY  0250   76 77  100/  6/  6 1021.0F   0
KENOSHA   LAKESH 0300   73        CALM     1021.7R
$$

TC  - TEMPERATURE IN CELSIUS
VSB - VISIBILITY IN STATUTE MILES
WCI - WIND CHILL INDEX
HX  - HEAT INDEX





USA.gov is the U.S. government's official web portal to all federal, state and local government web resources and services.